When you browse on this site, cookies collect data to enhance your experience and personalize the content and advertising you see.
Visit our Privacy Policy to learn more. By continuing to use the site, you agree to this use of cookies and data.

Stündliche Wetter Zharma

Heute, 10 Juli, Freitag

Zeit Temperatur Niederschläge Wind Luftdruck Luftfeuchtigkeit
00:00 +17°C° 0 mm 2 m/S 695 mmHg 74%
01:00 +17°C° 0 mm 2 m/S 695 mmHg 75%
02:00 +17°C° 0 mm 2 m/S 695 mmHg 77%
03:00 +18°C° 0 mm 2 m/S 695 mmHg 75%
04:00 +18°C° 0 mm 2 m/S 695 mmHg 73%
05:00 +19°C° 0 mm 2 m/S 695 mmHg 71%
06:00 +21°C° 0 mm 3 m/S 696 mmHg 65%
07:00 +23°C° 0 mm 4 m/S 696 mmHg 59%
08:00 +25°C° 0 mm 5 m/S 696 mmHg 53%
09:00 +26°C° 0 mm 5 m/S 696 mmHg 50%
10:00 +27°C° 0 mm 5 m/S 695 mmHg 48%
11:00 +27°C° 0 mm 4 m/S 695 mmHg 45%
12:00 +28°C° 0 mm 4 m/S 695 mmHg 44%
13:00 +28°C° 0 mm 4 m/S 695 mmHg 42%
14:00 +28°C° 0 mm 5 m/S 695 mmHg 40%
15:00 +28°C° 0 mm 5 m/S 694 mmHg 40%
16:00 +28°C° 0 mm 5 m/S 694 mmHg 40%
17:00 +28°C° 0 mm 4 m/S 694 mmHg 40%
18:00 +27°C° 0 mm 4 m/S 694 mmHg 43%
19:00 +25°C° 0 mm 3 m/S 694 mmHg 47%
20:00 +24°C° 0 mm 2 m/S 694 mmHg 50%
21:00 +21°C° 0.2 mm 2 m/S 694 mmHg 63%
22:00 +19°C° 0.2 mm 3 m/S 694 mmHg 76%
23:00 +18°C° 0.2 mm 3 m/S 694 mmHg 90%

Morgen, 11 Juli, Samstag

Zeit Temperatur Niederschläge Wind Luftdruck Luftfeuchtigkeit
00:00 +18°C° 0 mm 3 m/S 694 mmHg 90%
01:00 +17°C° 0 mm 3 m/S 693 mmHg 91%
02:00 +17°C° 0 mm 2 m/S 693 mmHg 91%
03:00 +17°C° 0.6 mm 3 m/S 694 mmHg 91%
04:00 +17°C° 0.6 mm 3 m/S 694 mmHg 90%
05:00 +17°C° 0.6 mm 4 m/S 695 mmHg 90%
06:00 +16°C° 1.1 mm 5 m/S 695 mmHg 88%
07:00 +16°C° 1.1 mm 5 m/S 695 mmHg 86%
08:00 +16°C° 1.1 mm 6 m/S 695 mmHg 84%
09:00 +19°C° 0 mm 6 m/S 695 mmHg 74%
10:00 +21°C° 0 mm 6 m/S 696 mmHg 64%
11:00 +22°C° 0 mm 7 m/S 696 mmHg 55%
12:00 +22°C° 0 mm 7 m/S 696 mmHg 53%
13:00 +22°C° 0 mm 7 m/S 696 mmHg 51%
14:00 +22°C° 0 mm 7 m/S 696 mmHg 50%
15:00 +22°C° 0 mm 7 m/S 696 mmHg 48%
16:00 +22°C° 0 mm 7 m/S 696 mmHg 47%
17:00 +22°C° 0 mm 8 m/S 696 mmHg 46%
18:00 +21°C° 0 mm 7 m/S 696 mmHg 51%
19:00 +20°C° 0 mm 6 m/S 696 mmHg 55%
20:00 +19°C° 0 mm 5 m/S 696 mmHg 60%
21:00 +17°C° 0 mm 5 m/S 696 mmHg 64%
22:00 +17°C° 0 mm 4 m/S 696 mmHg 69%
23:00 +15°C° 0 mm 4 m/S 697 mmHg 73%

übermorgen, 12 Juli, Sonntag

Zeit Temperatur Niederschläge Wind Luftdruck Luftfeuchtigkeit
00:00 +15°C° 0 mm 4 m/S 696 mmHg 77%
01:00 +14°C° 0 mm 3 m/S 696 mmHg 80%
02:00 +14°C° 0 mm 3 m/S 696 mmHg 83%
03:00 +14°C° 0 mm 4 m/S 696 mmHg 84%
04:00 +14°C° 0 mm 4 m/S 696 mmHg 84%
05:00 +14°C° 0 mm 4 m/S 697 mmHg 85%
06:00 +15°C° 0 mm 5 m/S 697 mmHg 78%
07:00 +17°C° 0 mm 6 m/S 697 mmHg 71%
08:00 +18°C° 0 mm 7 m/S 697 mmHg 64%
09:00 +21°C° 0 mm 7 m/S 697 mmHg 59%
10:00 +22°C° 0 mm 7 m/S 697 mmHg 54%
11:00 +23°C° 0 mm 7 m/S 697 mmHg 48%
12:00 +24°C° 0 mm 7 m/S 697 mmHg 45%
13:00 +26°C° 0 mm 6 m/S 697 mmHg 42%
14:00 +27°C° 0 mm 6 m/S 697 mmHg 39%
15:00 +26°C° 0 mm 6 m/S 697 mmHg 39%
16:00 +26°C° 0 mm 6 m/S 697 mmHg 38%
17:00 +26°C° 0 mm 5 m/S 697 mmHg 38%
18:00 +23°C° 0 mm 4 m/S 697 mmHg 43%
19:00 +21°C° 0 mm 3 m/S 697 mmHg 48%
20:00 +19°C° 0 mm 2 m/S 696 mmHg 53%
21:00 +20°C° 0 mm 1 m/S 696 mmHg 57%
22:00 +19°C° 0 mm 1 m/S 696 mmHg 60%
23:00 +16°C° 0 mm 0 m/S 696 mmHg 64%

13 Juli, Montag

Zeit Temperatur Niederschläge Wind Luftdruck Luftfeuchtigkeit
00:00 +15°C° 0 mm 0 m/S 696 mmHg 65%
01:00 +15°C° 0 mm 0 m/S 696 mmHg 67%
02:00 +15°C° 0 mm 0 m/S 696 mmHg 69%
03:00 +16°C° 0 mm 1 m/S 696 mmHg 66%
04:00 +17°C° 0 mm 2 m/S 696 mmHg 64%
05:00 +18°C° 0 mm 2 m/S 697 mmHg 62%
06:00 +18°C° 0 mm 3 m/S 697 mmHg 63%
07:00 +19°C° 0 mm 3 m/S 697 mmHg 65%
08:00 +19°C° 0 mm 4 m/S 697 mmHg 66%
09:00 +19°C° 0.2 mm 3 m/S 697 mmHg 66%
10:00 +19°C° 0.2 mm 3 m/S 697 mmHg 65%
11:00 +20°C° 0.2 mm 2 m/S 697 mmHg 65%
12:00 +21°C° 0.1 mm 3 m/S 697 mmHg 59%
13:00 +22°C° 0.1 mm 3 m/S 697 mmHg 54%
14:00 +24°C° 0.1 mm 3 m/S 698 mmHg 48%
15:00 +24°C° 0.8 mm 3 m/S 697 mmHg 51%
16:00 +23°C° 0.8 mm 2 m/S 697 mmHg 54%
17:00 +23°C° 0.8 mm 2 m/S 697 mmHg 57%
18:00 +20°C° 1.6 mm 2 m/S 697 mmHg 65%
19:00 +19°C° 1.6 mm 2 m/S 697 mmHg 73%
20:00 +17°C° 1.6 mm 2 m/S 697 mmHg 81%
21:00 +17°C° 0.2 mm 2 m/S 697 mmHg 82%
22:00 +17°C° 0.2 mm 2 m/S 697 mmHg 83%
23:00 +17°C° 0.2 mm 2 m/S 697 mmHg 84%

14 Juli, Dienstag

Zeit Temperatur Niederschläge Wind Luftdruck Luftfeuchtigkeit
00:00 +16°C° 0 mm 3 m/S 697 mmHg 87%
01:00 +15°C° 0 mm 4 m/S 698 mmHg 90%
02:00 +15°C° 0 mm 5 m/S 698 mmHg 93%
03:00 +15°C° 0 mm 5 m/S 698 mmHg 92%
04:00 +15°C° 0 mm 5 m/S 698 mmHg 90%
05:00 +15°C° 0 mm 6 m/S 698 mmHg 88%
06:00 +16°C° 0 mm 6 m/S 699 mmHg 82%
07:00 +17°C° 0 mm 7 m/S 699 mmHg 76%
08:00 +18°C° 0 mm 8 m/S 699 mmHg 70%
09:00 +20°C° 0 mm 8 m/S 699 mmHg 65%
10:00 +21°C° 0 mm 8 m/S 699 mmHg 60%
11:00 +22°C° 0 mm 8 m/S 700 mmHg 55%
12:00 +23°C° 0 mm 8 m/S 699 mmHg 52%
13:00 +24°C° 0 mm 8 m/S 699 mmHg 50%
14:00 +26°C° 0 mm 8 m/S 699 mmHg 47%
15:00 +26°C° 0 mm 8 m/S 699 mmHg 47%
16:00 +24°C° 0 mm 8 m/S 699 mmHg 47%
17:00 +24°C° 0 mm 8 m/S 699 mmHg 47%
18:00 +23°C° 0 mm 7 m/S 700 mmHg 51%
19:00 +21°C° 0 mm 6 m/S 700 mmHg 56%
20:00 +20°C° 0 mm 5 m/S 700 mmHg 60%
21:00 +19°C° 0 mm 5 m/S 700 mmHg 65%
22:00 +17°C° 0 mm 5 m/S 700 mmHg 70%
23:00 +17°C° 0 mm 5 m/S 700 mmHg 74%

15 Juli, Mittwoch

Zeit Temperatur Niederschläge Wind Luftdruck Luftfeuchtigkeit
00:00 +16°C° 0 mm 5 m/S 699 mmHg 76%
01:00 +16°C° 0 mm 5 m/S 699 mmHg 77%
02:00 +17°C° 0 mm 4 m/S 699 mmHg 79%
03:00 +16°C° 0 mm 5 m/S 699 mmHg 78%
04:00 +16°C° 0 mm 5 m/S 699 mmHg 78%
05:00 +16°C° 0 mm 5 m/S 699 mmHg 78%
06:00 +19°C° 0 mm 6 m/S 699 mmHg 72%
07:00 +20°C° 0 mm 7 m/S 700 mmHg 67%
08:00 +22°C° 0 mm 9 m/S 700 mmHg 62%
09:00 +23°C° 0 mm 9 m/S 700 mmHg 57%
10:00 +24°C° 0 mm 9 m/S 700 mmHg 52%
11:00 +26°C° 0 mm 9 m/S 700 mmHg 47%
12:00 +27°C° 0 mm 9 m/S 700 mmHg 45%
13:00 +28°C° 0 mm 9 m/S 700 mmHg 44%
14:00 +28°C° 0 mm 9 m/S 699 mmHg 43%
15:00 +28°C° 0 mm 9 m/S 699 mmHg 45%
16:00 +28°C° 0 mm 9 m/S 699 mmHg 48%
17:00 +27°C° 0 mm 9 m/S 699 mmHg 50%
18:00 +26°C° 0 mm 8 m/S 699 mmHg 57%
19:00 +23°C° 0 mm 7 m/S 699 mmHg 63%
20:00 +21°C° 0 mm 6 m/S 699 mmHg 70%
21:00 +20°C° 0 mm 6 m/S 698 mmHg 72%
22:00 +19°C° 0 mm 5 m/S 698 mmHg 74%
23:00 +18°C° 0 mm 4 m/S 698 mmHg 76%
Mehr zeigen